Voltar ao catálogo

COSMOS 2251 DEB

AtivoLEO
NORAD 38054·DEBRIS·🇷🇺 Russia

Lançado Jun 16, 1993 de Plesetsk Cosmodrome

Loading…

Próximas Passagens (próximas 24 horas)

TLE

AtualizadoSource: Space-Track

Época: Sep 14, 2026, 22:21 UTC

1 38054U 93036BRL 26257.93188350  .00002316  00000-0  19465-2 0  9999
2 38054  73.9522 173.3326 0349332  97.4485  33.6908 13.63807795709437

Acompanhe COSMOS 2251 DEB em tempo real com AllMySat

Download on the App Store